DW3637 Weather Reports


Display with metric or nautical units.
time (UTC)temp
F
wind
direction
speed
MPH
gust
MPH
rain 1hr
in
rain 24hr
in
rain mn
in
humidity
%
barometer
mb
20260504050517 40 0.0 0.0 0.00 0.00 0.00 74 1010.5
20260504045544 40 0.0 0.0 0.00 0.00 0.00 74 1010.5
20260504044516 40 0.0 0.0 0.00 0.00 0.00 73 1010.6
20260504043517 40 0.0 0.0 0.00 0.00 0.00 72 1010.6
20260504042516 40 0.0 0.0 0.00 0.00 0.00 71 1010.6
20260504041517 41 0.0 0.0 0.00 0.00 0.00 71 1010.5
20260504040537 41 0.0 0.0 0.00 0.00 0.00 70 1010.5
20260504035523 41 0.0 0.0 0.00 0.00 0.00 68 1010.5
20260504034518 41 0.0 0.0 0.00 0.00 0.00 67 1010.4
20260504033518 42 0.0 0.0 0.00 0.00 0.00 66 1010.3
20260504032517 42 0.0 0.0 0.00 0.00 0.00 65 1010.2
20260504031538 42 0.0 0.0 0.00 0.00 0.00 65 1010.1
20260504030518 42 0.0 0.0 0.00 0.00 0.00 64 1010.1
20260504025517 42 0.0 1.0 0.00 0.00 0.00 63 1010.1
20260504024537 42 0.0 0.0 0.00 0.00 0.00 62 1010.2
20260504023518 42 0.0 0.0 0.00 0.00 0.00 62 1010.1
20260504022518 43 0.0 0.0 0.00 0.00 0.00 60 1010.1
20260504021517 43 0.0 0.0 0.00 0.00 0.00 58 1010.0
20260504020518 44 0.0 0.0 0.00 0.00 0.00 58 1009.9
20260504015519 44 0.0 0.0 0.00 0.00 0.00 57 1009.8
20260504014517 45 0.0 0.0 0.00 0.00 0.00 54 1009.8
20260504013518 46 0.0 0.0 0.00 0.00 0.00 51 1009.7
20260504012517 46 0.0 1.0 0.00 0.00 0.00 51 1009.6
20260504011517 46 270 1.0 6.0 0.00 0.00 0.00 49 1009.5
20260504010517 47 0.0 0.0 0.00 0.00 0.00 50 1009.3
20260504005517 48 0.0 0.0 0.00 0.00 0.00 46 1009.2
20260504004517 50 0.0 0.0 0.00 0.00 0.00 41 1009.0
20260504003518 51 0.0 0.0 0.00 0.00 0.00 36 1008.9
20260504002517 52 45 1.0 5.0 0.00 0.00 0.00 35 1008.7
20260504001517 52 0.0 1.0 0.00 0.00 0.00 35 1008.6
20260504000517 52 0.0 1.0 0.00 0.00 0.00 35 1008.4
20260503235517 53 0.0 2.0 0.00 0.00 0.00 35 1008.3
20260503234617 54 315 1.0 5.0 0.00 0.00 0.00 35 1008.3
20260503233517 54 338 1.0 6.0 0.00 0.00 0.00 34 1008.2
20260503232517 55 0.0 2.0 0.00 0.00 0.00 34 1008.0
20260503231517 57 0 1.0 3.0 0.00 0.00 0.00 34 1008.0
20260503230516 57 338 1.0 3.0 0.00 0.00 0.00 33 1008.0
20260503225518 57 0 1.0 5.0 0.00 0.00 0.00 34 1008.0
20260503224517 57 45 2.0 5.0 0.00 0.00 0.00 34 1007.9
20260503223517 57 23 2.0 5.0 0.00 0.00 0.00 34 1007.9
20260503222539 57 23 2.0 9.0 0.00 0.00 0.00 33 1008.0
20260503221517 57 23 3.0 9.0 0.00 0.00 0.00 34 1008.0
20260503220516 57 23 3.0 11.0 0.00 0.00 0.00 35 1007.9
20260503215516 57 45 2.0 9.0 0.00 0.00 0.00 34 1007.9
20260503214516 56 23 2.0 7.0 0.00 0.00 0.00 36 1008.0
20260503213516 55 23 4.0 9.0 0.00 0.00 0.00 38 1008.0
20260503212517 54 315 3.0 11.0 0.00 0.00 0.00 37 1008.1
20260503211516 55 23 4.0 11.0 0.00 0.00 0.00 37 1008.0
20260503210516 55 45 4.0 14.0 0.00 0.00 0.00 37 1007.9
20260503205517 56 23 4.0 10.0 0.00 0.00 0.00 37 1007.9
20260503204518 56 23 4.0 8.0 0.00 0.00 0.00 38 1007.8
20260503203516 55 293 5.0 15.0 0.00 0.00 0.00 39 1007.8
20260503202516 54 23 4.0 14.0 0.00 0.00 0.00 39 1007.8
20260503201525 55 45 3.0 7.0 0.00 0.00 0.00 38 1007.8
20260503200516 54 293 5.0 13.0 0.00 0.00 0.00 38 1007.4
20260503195516 55 23 3.0 9.0 0.00 0.00 0.00 38 1007.6
20260503194516 54 338 5.0 13.0 0.00 0.00 0.00 40 1007.6
20260503193516 54 293 5.0 15.0 0.00 0.00 0.00 38 1007.7
20260503192536 54 315 3.0 9.0 0.00 0.00 0.00 39 1007.7
20260503191517 54 23 3.0 7.0 0.00 0.00 0.00 40 1007.6
20260503190516 53 293 5.0 11.0 0.00 0.00 0.00 41 1007.6
20260503185516 54 23 4.0 11.0 0.00 0.00 0.00 39 1007.8
20260503184516 54 23 3.0 8.0 0.00 0.00 0.00 41 1007.7
20260503183516 54 338 3.0 10.0 0.00 0.00 0.00 40 1007.8
20260503182536 54 23 2.0 7.0 0.00 0.00 0.00 40 1007.6
20260503181516 53 45 4.0 12.0 0.00 0.00 0.00 41 1007.8
20260503180517 56 23 4.0 10.0 0.00 0.00 0.00 41 1007.8
20260503175518 55 23 4.0 14.0 0.00 0.01 0.00 41 1007.6
20260503174516 55 23 4.0 11.0 0.00 0.02 0.00 43 1007.7
20260503173536 56 23 4.0 14.0 0.00 0.02 0.00 44 1007.8
20260503172516 55 315 6.0 16.0 0.00 0.03 0.00 44 1007.7
20260503171527 54 45 3.0 12.0 0.00 0.05 0.00 40 1007.6
20260503170516 53 23 5.0 12.0 0.00 0.06 0.00 42 1007.7
20260503150516 52 23 3.0 11.0 0.00 0.30 0.00 46 1007.5
20260503130521 47 23 1.0 4.0 0.00 0.30 0.00 64 1008.3
20260503110518 43 23 1.0 6.0 0.00 0.37 0.00 67 1008.3
20260503081600 42 0.0 3.0 0.00 0.50 0.00 64 1008.7
20260503080520 42 338 1.0 8.0 0.00 0.51 0.00 63 1008.6
20260503072520 42 0.0 0.0 0.00 0.51 0.00 61 1009.0
20260503071520 43 0.0 0.0 0.00 0.51 0.00 60 1009.1
20260503070517 43 0.0 1.0 0.00 0.51 0.00 60 1009.1
20260503054525 45 0.0 1.0 0.00 0.52 0.00 55 1010.0
20260503053517 45 0.0 2.0 0.00 0.52 0.00 54 1010.2
20260503052517 45 0.0 3.0 0.00 0.52 0.00 53 1010.3